Location: Igon
(43.1667°N, 0.2333°W)
Time: 05:41:37
(UTC+00:00)

Cosmos 1844 Rocket - Pass Details

Date: 29 November 2020
Orbit: 824 x 845 km, 71.0° (Epoch: 27 January)

Event Time Altitude Azimuth Distance (km) Brightness Sun altitude
Rises 05:51:46 0° 216° (SW) 3,373 5.6 -14.1°
Reaches altitude 10° 05:54:14 10° 220° (SW) 2,446 4.9 -13.7°
Maximum altitude 05:59:45 56° 298° (WNW) 992 2.7 -12.7°
Drops below altitude 10° 06:05:20 10° 17° (NNE) 2,472 5.1 -11.8°
Sets 06:07:51 0° 22° (NNE) 3,412 5.9 -11.3°
